Year,Month,Day,Hour,Minute,Value (Times are PST for temperature in C)
2013,06,15,00,00,10.70
2013,06,15,00,01,10.70
2013,06,15,00,02,10.70
2013,06,15,00,03,10.70
2013,06,15,00,04,10.70
2013,06,15,00,05,10.70
2013,06,15,00,06,10.70
2013,06,15,00,07,10.70
2013,06,15,00,08,10.70
2013,06,15,00,09,10.70
2013,06,15,00,10,10.70
2013,06,15,00,11,10.70
2013,06,15,00,12,10.70
2013,06,15,00,13,10.70
2013,06,15,00,14,10.60
2013,06,15,00,15,10.60
2013,06,15,00,16,10.60
2013,06,15,00,17,10.60
2013,06,15,00,18,10.60
2013,06,15,00,19,10.60
2013,06,15,00,20,10.60
2013,06,15,00,21,10.60
2013,06,15,00,22,10.60
2013,06,15,00,23,10.60
2013,06,15,00,24,10.60
2013,06,15,00,25,10.50
2013,06,15,00,26,10.50
2013,06,15,00,27,10.50
2013,06,15,00,28,10.50
2013,06,15,00,29,10.50
2013,06,15,00,30,10.40
2013,06,15,00,31,10.40
2013,06,15,00,32,10.40
2013,06,15,00,33,10.40
2013,06,15,00,34,10.40
2013,06,15,00,35,10.40
2013,06,15,00,36,10.40
2013,06,15,00,37,10.40
2013,06,15,00,38,10.40
2013,06,15,00,39,10.30
2013,06,15,00,40,10.30
2013,06,15,00,41,10.30
2013,06,15,00,42,10.30
2013,06,15,00,43,10.30
2013,06,15,00,44,10.30
2013,06,15,00,45,10.30
2013,06,15,00,46,10.30
2013,06,15,00,47,10.30
2013,06,15,00,48,10.30
2013,06,15,00,49,10.30
2013,06,15,00,50,10.30
2013,06,15,00,51,10.30
2013,06,15,00,52,10.30
2013,06,15,00,53,10.30
2013,06,15,00,54,10.30
2013,06,15,00,55,10.30
2013,06,15,00,56,10.30
2013,06,15,00,57,10.30
2013,06,15,00,58,10.20
2013,06,15,00,59,10.20
2013,06,15,01,00,10.20
2013,06,15,01,01,10.20
2013,06,15,01,02,10.20
2013,06,15,01,03,10.20
2013,06,15,01,04,10.20
2013,06,15,01,05,10.20
2013,06,15,01,06,10.10
2013,06,15,01,07,10.10
2013,06,15,01,08,10.10
2013,06,15,01,09,10.10
2013,06,15,01,10,10.10
2013,06,15,01,11,10.10
2013,06,15,01,12,10.10
2013,06,15,01,13,10.10
2013,06,15,01,14,10.10
2013,06,15,01,15,10.10
2013,06,15,01,16,10.10
2013,06,15,01,17,10.10
2013,06,15,01,18,10.10
2013,06,15,01,19,10.10
2013,06,15,01,20,10.00
2013,06,15,01,21,10.00
2013,06,15,01,22,10.00
2013,06,15,01,23,10.00
2013,06,15,01,24,9.90
2013,06,15,01,25,9.90
2013,06,15,01,26,9.90
2013,06,15,01,27,9.90
2013,06,15,01,28,9.90
2013,06,15,01,29,9.90
2013,06,15,01,30,9.90
2013,06,15,01,31,9.90
2013,06,15,01,32,9.80
2013,06,15,01,33,9.80
2013,06,15,01,34,9.80
2013,06,15,01,35,9.80
2013,06,15,01,36,9.80
2013,06,15,01,37,9.80
2013,06,15,01,38,9.80
2013,06,15,01,39,9.80
2013,06,15,01,40,9.80
2013,06,15,01,41,9.80
2013,06,15,01,42,9.80
2013,06,15,01,43,9.80
2013,06,15,01,44,9.80
2013,06,15,01,45,9.70
2013,06,15,01,46,9.70
2013,06,15,01,47,9.70
2013,06,15,01,48,9.70
2013,06,15,01,49,9.70
2013,06,15,01,50,9.70
2013,06,15,01,51,9.70
2013,06,15,01,52,9.70
2013,06,15,01,53,9.70
2013,06,15,01,54,9.70
2013,06,15,01,55,9.70
2013,06,15,01,56,9.70
2013,06,15,01,57,9.70
2013,06,15,01,58,9.70
2013,06,15,01,59,9.70
2013,06,15,02,00,9.70
2013,06,15,02,01,9.70
2013,06,15,02,02,9.70
2013,06,15,02,03,9.70
2013,06,15,02,04,9.70
2013,06,15,02,05,9.70
2013,06,15,02,06,9.70
2013,06,15,02,07,9.60
2013,06,15,02,08,9.70
2013,06,15,02,09,9.60
2013,06,15,02,10,9.60
2013,06,15,02,11,9.60
2013,06,15,02,12,9.60
2013,06,15,02,13,9.60
2013,06,15,02,14,9.60
2013,06,15,02,15,9.60
2013,06,15,02,16,9.60
2013,06,15,02,17,9.60
2013,06,15,02,18,9.60
2013,06,15,02,19,9.60
2013,06,15,02,20,9.60
2013,06,15,02,21,9.60
2013,06,15,02,22,9.60
2013,06,15,02,23,9.60
2013,06,15,02,24,9.60
2013,06,15,02,25,9.60
2013,06,15,02,26,9.60
2013,06,15,02,27,9.60
2013,06,15,02,28,9.60
2013,06,15,02,29,9.60
2013,06,15,02,30,9.60
2013,06,15,02,31,9.50
2013,06,15,02,32,9.50
2013,06,15,02,33,9.50
2013,06,15,02,34,9.50
2013,06,15,02,35,9.50
2013,06,15,02,36,9.50
2013,06,15,02,37,9.50
2013,06,15,02,38,9.50
2013,06,15,02,39,9.50
2013,06,15,02,40,9.50
2013,06,15,02,41,9.50
2013,06,15,02,42,9.50
2013,06,15,02,43,9.50
2013,06,15,02,44,9.40
2013,06,15,02,45,9.40
2013,06,15,02,46,9.40
2013,06,15,02,47,9.40
2013,06,15,02,48,9.40
2013,06,15,02,49,9.40
2013,06,15,02,50,9.30
2013,06,15,02,51,9.30
2013,06,15,02,52,9.30
2013,06,15,02,53,9.30
2013,06,15,02,54,9.30
2013,06,15,02,55,9.30
2013,06,15,02,56,9.30
2013,06,15,02,57,9.30
2013,06,15,02,58,9.30
2013,06,15,02,59,9.20
2013,06,15,03,00,9.20
2013,06,15,03,01,9.20
2013,06,15,03,02,9.20
2013,06,15,03,03,9.20
2013,06,15,03,04,9.20
2013,06,15,03,05,9.20
2013,06,15,03,06,9.20
2013,06,15,03,07,9.20
2013,06,15,03,08,9.30
2013,06,15,03,09,9.30
2013,06,15,03,10,9.30
2013,06,15,03,11,9.30
2013,06,15,03,12,9.30
2013,06,15,03,13,9.20
2013,06,15,03,14,9.20
2013,06,15,03,15,9.20
2013,06,15,03,16,9.30
2013,06,15,03,17,9.30
2013,06,15,03,18,9.30
2013,06,15,03,19,9.30
2013,06,15,03,20,9.30
2013,06,15,03,21,9.30
2013,06,15,03,22,9.30
2013,06,15,03,23,9.20
2013,06,15,03,24,9.20
2013,06,15,03,25,9.20
2013,06,15,03,26,9.20
2013,06,15,03,27,9.20
2013,06,15,03,28,9.20
2013,06,15,03,29,9.20
2013,06,15,03,30,9.30
2013,06,15,03,31,9.40
2013,06,15,03,32,9.50
2013,06,15,03,33,9.50
2013,06,15,03,34,9.50
2013,06,15,03,35,9.40
2013,06,15,03,36,9.40
2013,06,15,03,37,9.30
2013,06,15,03,38,9.30
2013,06,15,03,39,9.30
2013,06,15,03,40,9.30
2013,06,15,03,41,9.20
2013,06,15,03,42,9.20
2013,06,15,03,43,9.20
2013,06,15,03,44,9.20
2013,06,15,03,45,9.20
2013,06,15,03,46,9.20
2013,06,15,03,47,9.20
2013,06,15,03,48,9.20
2013,06,15,03,49,9.20
2013,06,15,03,50,9.20
2013,06,15,03,51,9.20
2013,06,15,03,52,9.10
2013,06,15,03,53,9.10
2013,06,15,03,54,9.10
2013,06,15,03,55,9.10
2013,06,15,03,56,9.10
2013,06,15,03,57,9.10
2013,06,15,03,58,9.10
2013,06,15,03,59,9.10
2013,06,15,04,00,9.10
2013,06,15,04,01,9.00
2013,06,15,04,02,9.00
2013,06,15,04,03,9.00
2013,06,15,04,04,9.00
2013,06,15,04,05,9.00
2013,06,15,04,06,8.90
2013,06,15,04,07,8.90
2013,06,15,04,08,8.90
2013,06,15,04,09,8.90
2013,06,15,04,10,8.90
2013,06,15,04,11,8.90
2013,06,15,04,12,8.90
2013,06,15,04,13,8.90
2013,06,15,04,14,8.90
2013,06,15,04,15,8.90
2013,06,15,04,16,8.80
2013,06,15,04,17,8.80
2013,06,15,04,18,8.80
2013,06,15,04,19,8.80
2013,06,15,04,20,8.80
2013,06,15,04,21,8.80
2013,06,15,04,22,8.90
2013,06,15,04,23,8.90
2013,06,15,04,24,8.90
2013,06,15,04,25,8.90
2013,06,15,04,26,8.90
2013,06,15,04,27,8.80
2013,06,15,04,28,8.80
2013,06,15,04,29,8.80
2013,06,15,04,30,8.80
2013,06,15,04,31,8.80
2013,06,15,04,32,8.80
2013,06,15,04,33,8.80
2013,06,15,04,34,8.80
2013,06,15,04,35,8.80
2013,06,15,04,36,8.80
2013,06,15,04,37,8.80
2013,06,15,04,38,8.80
2013,06,15,04,39,8.80
2013,06,15,04,40,8.80
2013,06,15,04,41,8.80
2013,06,15,04,42,8.70
2013,06,15,04,43,8.70
2013,06,15,04,44,8.70
2013,06,15,04,45,8.70
2013,06,15,04,46,8.70
2013,06,15,04,47,8.60
2013,06,15,04,48,8.60
2013,06,15,04,49,8.60
2013,06,15,04,50,8.60
2013,06,15,04,51,8.60
2013,06,15,04,52,8.60
2013,06,15,04,53,8.60
2013,06,15,04,54,8.60
2013,06,15,04,55,8.60
2013,06,15,04,56,8.60
2013,06,15,04,57,8.60
2013,06,15,04,58,8.60
2013,06,15,04,59,8.60
2013,06,15,05,00,8.60
2013,06,15,05,01,8.60
2013,06,15,05,02,8.60
2013,06,15,05,03,8.60
2013,06,15,05,04,8.60
2013,06,15,05,05,8.70
2013,06,15,05,06,8.70
2013,06,15,05,07,8.70
2013,06,15,05,08,8.70
2013,06,15,05,09,8.70
2013,06,15,05,10,8.70
2013,06,15,05,11,8.70
2013,06,15,05,12,8.70
2013,06,15,05,13,8.70
2013,06,15,05,14,8.70
2013,06,15,05,15,8.70
2013,06,15,05,16,8.60
2013,06,15,05,17,8.60
2013,06,15,05,18,8.60
2013,06,15,05,19,8.60
2013,06,15,05,20,8.60
2013,06,15,05,21,8.60
2013,06,15,05,22,8.60
2013,06,15,05,23,8.50
2013,06,15,05,24,8.50
2013,06,15,05,25,8.50
2013,06,15,05,26,8.50
2013,06,15,05,27,8.50
2013,06,15,05,28,8.50
2013,06,15,05,29,8.50
2013,06,15,05,30,8.50
2013,06,15,05,31,8.50
2013,06,15,05,32,8.60
2013,06,15,05,33,8.60
2013,06,15,05,34,8.60
2013,06,15,05,35,8.60
2013,06,15,05,36,8.60
2013,06,15,05,37,8.60
2013,06,15,05,38,8.60
2013,06,15,05,39,8.60
2013,06,15,05,40,8.50
2013,06,15,05,41,8.50
2013,06,15,05,42,8.50
2013,06,15,05,43,8.50
2013,06,15,05,44,8.50
2013,06,15,05,45,8.50
2013,06,15,05,46,8.50
2013,06,15,05,47,8.50
2013,06,15,05,48,8.50
2013,06,15,05,49,8.50
2013,06,15,05,50,8.60
2013,06,15,05,51,8.60
2013,06,15,05,52,8.60
2013,06,15,05,53,8.60
2013,06,15,05,54,8.60
2013,06,15,05,55,8.70
2013,06,15,05,56,8.70
2013,06,15,05,57,8.60
2013,06,15,05,58,8.60
2013,06,15,05,59,8.60
2013,06,15,06,00,8.60
2013,06,15,06,01,8.60
2013,06,15,06,02,8.60
2013,06,15,06,03,8.70
2013,06,15,06,04,8.70
2013,06,15,06,05,8.70
2013,06,15,06,06,8.70
2013,06,15,06,07,8.70
2013,06,15,06,08,8.70
2013,06,15,06,09,8.70
2013,06,15,06,10,8.70
2013,06,15,06,11,8.70
2013,06,15,06,12,8.80
2013,06,15,06,13,8.80
2013,06,15,06,14,8.80
2013,06,15,06,15,8.80
2013,06,15,06,16,8.80
2013,06,15,06,17,8.80
2013,06,15,06,18,8.80
2013,06,15,06,19,8.80
2013,06,15,06,20,8.90
2013,06,15,06,21,8.90
2013,06,15,06,22,9.00
2013,06,15,06,23,9.00
2013,06,15,06,24,9.10
2013,06,15,06,25,9.10
2013,06,15,06,26,9.10
2013,06,15,06,27,9.20
2013,06,15,06,28,9.20
2013,06,15,06,29,9.30
2013,06,15,06,30,9.30
2013,06,15,06,31,9.40
2013,06,15,06,32,9.50
2013,06,15,06,33,9.50
2013,06,15,06,34,9.60
2013,06,15,06,35,9.60
2013,06,15,06,36,9.60
2013,06,15,06,37,9.60
2013,06,15,06,38,9.70
2013,06,15,06,39,9.70
2013,06,15,06,40,9.70
2013,06,15,06,41,9.70
2013,06,15,06,42,9.60
2013,06,15,06,43,9.60
2013,06,15,06,44,9.60
2013,06,15,06,45,9.70
2013,06,15,06,46,9.70
2013,06,15,06,47,9.70
2013,06,15,06,48,9.80
2013,06,15,06,49,9.80
2013,06,15,06,50,9.90
2013,06,15,06,51,9.90
2013,06,15,06,52,10.00
2013,06,15,06,53,10.00
2013,06,15,06,54,10.10
2013,06,15,06,55,10.10
2013,06,15,06,56,10.10
2013,06,15,06,57,10.20
2013,06,15,06,58,10.20
2013,06,15,06,59,10.30
2013,06,15,07,00,10.30
2013,06,15,07,01,10.40
2013,06,15,07,02,10.40
2013,06,15,07,03,10.40
2013,06,15,07,04,10.50
2013,06,15,07,05,10.50
2013,06,15,07,06,10.60
2013,06,15,07,07,10.60
2013,06,15,07,08,10.70
2013,06,15,07,09,10.70
2013,06,15,07,10,10.70
2013,06,15,07,11,10.80
2013,06,15,07,12,10.90
2013,06,15,07,13,10.90
2013,06,15,07,14,11.00
2013,06,15,07,15,11.10
2013,06,15,07,16,11.20
2013,06,15,07,17,11.20
2013,06,15,07,18,11.30
2013,06,15,07,19,11.40
2013,06,15,07,20,11.50
2013,06,15,07,21,11.60
2013,06,15,07,22,11.60
2013,06,15,07,23,11.70
2013,06,15,07,24,11.80
2013,06,15,07,25,11.80
2013,06,15,07,26,11.90
2013,06,15,07,27,12.00
2013,06,15,07,28,12.10
2013,06,15,07,29,12.20
2013,06,15,07,30,12.30
2013,06,15,07,31,12.40
2013,06,15,07,32,12.50
2013,06,15,07,33,12.60
2013,06,15,07,34,12.70
2013,06,15,07,35,12.80
2013,06,15,07,36,12.80
2013,06,15,07,37,12.90
2013,06,15,07,38,13.00
2013,06,15,07,39,13.10
2013,06,15,07,40,13.10
2013,06,15,07,41,13.20
2013,06,15,07,42,13.20
2013,06,15,07,43,13.30
2013,06,15,07,44,13.30
2013,06,15,07,45,13.30
2013,06,15,07,46,13.30
2013,06,15,07,47,13.30
2013,06,15,07,48,13.30
2013,06,15,07,49,13.40
2013,06,15,07,50,13.40
2013,06,15,07,51,13.50
2013,06,15,07,52,13.50
2013,06,15,07,53,13.60
2013,06,15,07,54,13.60
2013,06,15,07,55,13.70
2013,06,15,07,56,13.70
2013,06,15,07,57,13.80
2013,06,15,07,58,13.80
2013,06,15,07,59,13.90
2013,06,15,08,00,13.90
2013,06,15,08,01,14.00
2013,06,15,08,02,14.10
2013,06,15,08,03,14.10
2013,06,15,08,04,14.20
2013,06,15,08,05,14.30
2013,06,15,08,06,14.30
2013,06,15,08,07,14.30
2013,06,15,08,08,14.40
2013,06,15,08,09,14.40
2013,06,15,08,10,14.50
2013,06,15,08,11,14.60
2013,06,15,08,12,14.60
2013,06,15,08,13,14.70
2013,06,15,08,14,14.80
2013,06,15,08,15,14.90
2013,06,15,08,16,14.90
2013,06,15,08,17,15.00
2013,06,15,08,18,15.10
2013,06,15,08,19,15.10
2013,06,15,08,20,15.10
2013,06,15,08,21,15.10
2013,06,15,08,22,15.20
2013,06,15,08,23,15.20
2013,06,15,08,24,15.20
2013,06,15,08,25,15.30
2013,06,15,08,26,15.30
2013,06,15,08,27,15.30
2013,06,15,08,28,15.30
2013,06,15,08,29,15.40
2013,06,15,08,30,15.40
2013,06,15,08,31,15.30
2013,06,15,08,32,15.30
2013,06,15,08,33,15.30
2013,06,15,08,34,15.30
2013,06,15,08,35,15.20
2013,06,15,08,36,15.20
2013,06,15,08,37,15.10
2013,06,15,08,38,15.10
2013,06,15,08,39,15.10
2013,06,15,08,40,15.10
2013,06,15,08,41,15.20
2013,06,15,08,42,15.20
2013,06,15,08,43,15.20
2013,06,15,08,44,15.20
2013,06,15,08,45,15.20
2013,06,15,08,46,15.20
2013,06,15,08,47,15.20
2013,06,15,08,48,15.30
2013,06,15,08,49,15.40
2013,06,15,08,50,15.40
2013,06,15,08,51,15.40
2013,06,15,08,52,15.40
2013,06,15,08,53,15.40
2013,06,15,08,54,15.30
2013,06,15,08,55,15.30
2013,06,15,08,56,15.30
2013,06,15,08,57,15.20
2013,06,15,08,58,15.20
2013,06,15,08,59,15.20
2013,06,15,09,00,15.20
2013,06,15,09,01,15.10
2013,06,15,09,02,15.10
2013,06,15,09,03,15.10
2013,06,15,09,04,15.10
2013,06,15,09,05,15.20
2013,06,15,09,06,15.20
2013,06,15,09,07,15.20
2013,06,15,09,08,15.30
2013,06,15,09,09,15.30
2013,06,15,09,10,15.30
2013,06,15,09,11,15.40
2013,06,15,09,12,15.40
2013,06,15,09,13,15.50
2013,06,15,09,14,15.60
2013,06,15,09,15,15.70
2013,06,15,09,16,15.70
2013,06,15,09,17,15.70
2013,06,15,09,18,15.70
2013,06,15,09,19,15.80
2013,06,15,09,20,15.80
2013,06,15,09,21,15.80
2013,06,15,09,22,15.80
2013,06,15,09,23,15.80
2013,06,15,09,24,15.80
2013,06,15,09,25,15.70
2013,06,15,09,26,15.70
2013,06,15,09,27,15.70
2013,06,15,09,28,15.70
2013,06,15,09,29,15.70
2013,06,15,09,30,15.70
2013,06,15,09,31,15.70
2013,06,15,09,32,15.80
2013,06,15,09,33,15.80
2013,06,15,09,34,15.90
2013,06,15,09,35,15.90
2013,06,15,09,36,15.90
2013,06,15,09,37,15.90
2013,06,15,09,38,15.90
2013,06,15,09,39,15.90
2013,06,15,09,40,15.90
2013,06,15,09,41,15.90
2013,06,15,09,42,15.90
2013,06,15,09,43,16.00
2013,06,15,09,44,16.10
2013,06,15,09,45,16.10
2013,06,15,09,46,16.20
2013,06,15,09,47,16.20
2013,06,15,09,48,16.20
2013,06,15,09,49,16.20
2013,06,15,09,50,16.20
2013,06,15,09,51,16.20
2013,06,15,09,52,16.20
2013,06,15,09,53,16.20
2013,06,15,09,54,16.20
2013,06,15,09,55,16.20
2013,06,15,09,56,16.20
2013,06,15,09,57,16.20
2013,06,15,09,58,16.30
2013,06,15,09,59,16.30
2013,06,15,10,00,16.30
2013,06,15,10,01,16.40
2013,06,15,10,02,16.40
2013,06,15,10,03,16.50
2013,06,15,10,04,16.50
2013,06,15,10,05,16.60
2013,06,15,10,06,16.60
2013,06,15,10,07,16.70
2013,06,15,10,08,16.70
2013,06,15,10,09,16.70
2013,06,15,10,10,16.70
2013,06,15,10,11,16.80
2013,06,15,10,12,16.80
2013,06,15,10,13,16.80
2013,06,15,10,14,16.80
2013,06,15,10,15,16.80
2013,06,15,10,16,16.80
2013,06,15,10,17,16.90
2013,06,15,10,18,16.90
2013,06,15,10,19,16.90
2013,06,15,10,20,16.90
2013,06,15,10,21,16.90
2013,06,15,10,22,16.90
2013,06,15,10,23,16.90
2013,06,15,10,24,16.80
2013,06,15,10,25,16.80
2013,06,15,10,26,16.70
2013,06,15,10,27,16.70
2013,06,15,10,28,16.70
2013,06,15,10,29,16.70
2013,06,15,10,30,16.80
2013,06,15,10,31,16.90
2013,06,15,10,32,17.00
2013,06,15,10,33,17.10
2013,06,15,10,34,17.10
2013,06,15,10,35,17.20
2013,06,15,10,36,17.20
2013,06,15,10,37,17.20
2013,06,15,10,38,17.20
2013,06,15,10,39,17.20
2013,06,15,10,40,17.30
2013,06,15,10,41,17.40
2013,06,15,10,42,17.50
2013,06,15,10,43,17.60
2013,06,15,10,44,17.60
2013,06,15,10,45,17.70
2013,06,15,10,46,17.80
2013,06,15,10,47,17.90
2013,06,15,10,48,18.10
2013,06,15,10,49,18.20
2013,06,15,10,50,18.20
2013,06,15,10,51,18.30
2013,06,15,10,52,18.30
2013,06,15,10,53,18.30
2013,06,15,10,54,18.30
2013,06,15,10,55,18.30
2013,06,15,10,56,18.30
2013,06,15,10,57,18.30
2013,06,15,10,58,18.30
2013,06,15,10,59,18.30
2013,06,15,11,00,18.40
2013,06,15,11,01,18.40
2013,06,15,11,02,18.40
2013,06,15,11,03,18.30
2013,06,15,11,04,18.30
2013,06,15,11,05,18.10
2013,06,15,11,06,18.00
2013,06,15,11,07,18.00
2013,06,15,11,08,18.00
2013,06,15,11,09,18.00
2013,06,15,11,10,18.10
2013,06,15,11,11,18.10
2013,06,15,11,12,18.00
2013,06,15,11,13,18.00
2013,06,15,11,14,18.00
2013,06,15,11,15,18.00
2013,06,15,11,16,18.00
2013,06,15,11,17,18.00
2013,06,15,11,18,17.90
2013,06,15,11,19,17.90
2013,06,15,11,20,17.90
2013,06,15,11,21,17.80
2013,06,15,11,22,17.80
2013,06,15,11,23,17.80
2013,06,15,11,24,17.80
2013,06,15,11,25,17.80
2013,06,15,11,26,17.80
2013,06,15,11,27,17.70
2013,06,15,11,28,17.60
2013,06,15,11,29,17.50
2013,06,15,11,30,17.50
2013,06,15,11,31,17.60
2013,06,15,11,32,17.60
2013,06,15,11,33,17.60
2013,06,15,11,34,17.70
2013,06,15,11,35,17.90
2013,06,15,11,36,18.10
2013,06,15,11,37,18.20
2013,06,15,11,38,18.40
2013,06,15,11,39,18.50
2013,06,15,11,40,18.60
2013,06,15,11,41,18.50
2013,06,15,11,42,18.40
2013,06,15,11,43,18.30
2013,06,15,11,44,18.20
2013,06,15,11,45,18.20
2013,06,15,11,46,18.20
2013,06,15,11,47,18.20
2013,06,15,11,48,18.20
2013,06,15,11,49,18.20
2013,06,15,11,50,18.20
2013,06,15,11,51,18.20
2013,06,15,11,52,18.20
2013,06,15,11,53,18.20
2013,06,15,11,54,18.20
2013,06,15,11,55,18.20
2013,06,15,11,56,18.20
2013,06,15,11,57,18.20
2013,06,15,11,58,18.20
2013,06,15,11,59,18.10
2013,06,15,12,00,18.10
2013,06,15,12,01,18.10
2013,06,15,12,02,18.10
2013,06,15,12,03,18.20
2013,06,15,12,04,18.30
2013,06,15,12,05,18.50
2013,06,15,12,06,18.70
2013,06,15,12,07,18.80
2013,06,15,12,08,19.00
2013,06,15,12,09,19.10
2013,06,15,12,10,19.20
2013,06,15,12,11,19.20
2013,06,15,12,12,19.30
2013,06,15,12,13,19.30
2013,06,15,12,14,19.30
2013,06,15,12,15,19.20
2013,06,15,12,16,19.20
2013,06,15,12,17,19.10
2013,06,15,12,18,19.00
2013,06,15,12,19,18.90
2013,06,15,12,20,18.90
2013,06,15,12,21,18.80
2013,06,15,12,22,18.80
2013,06,15,12,23,18.70
2013,06,15,12,24,18.70
2013,06,15,12,25,18.70
2013,06,15,12,26,18.80
2013,06,15,12,27,18.80
2013,06,15,12,28,18.90
2013,06,15,12,29,19.00
2013,06,15,12,30,19.10
2013,06,15,12,31,19.10
2013,06,15,12,32,19.10
2013,06,15,12,33,19.20
2013,06,15,12,34,19.20
2013,06,15,12,35,19.20
2013,06,15,12,36,19.20
2013,06,15,12,37,19.20
2013,06,15,12,38,19.20
2013,06,15,12,39,19.10
2013,06,15,12,40,19.00
2013,06,15,12,41,18.90
2013,06,15,12,42,18.90
2013,06,15,12,43,19.00
2013,06,15,12,44,19.10
2013,06,15,12,45,19.20
2013,06,15,12,46,19.20
2013,06,15,12,47,19.30
2013,06,15,12,48,19.30
2013,06,15,12,49,19.30
2013,06,15,12,50,19.30
2013,06,15,12,51,19.30
2013,06,15,12,52,19.30
2013,06,15,12,53,19.30
2013,06,15,12,54,19.20
2013,06,15,12,55,19.20
2013,06,15,12,56,19.00
2013,06,15,12,57,18.90
2013,06,15,12,58,18.70
2013,06,15,12,59,18.60
2013,06,15,13,00,18.60
2013,06,15,13,01,18.50
2013,06,15,13,02,18.50
2013,06,15,13,03,18.40
2013,06,15,13,04,18.40
2013,06,15,13,05,18.40
2013,06,15,13,06,18.40
2013,06,15,13,07,18.40
2013,06,15,13,08,18.40
2013,06,15,13,09,18.50
2013,06,15,13,10,18.60
2013,06,15,13,11,18.60
2013,06,15,13,12,18.60
2013,06,15,13,13,18.70
2013,06,15,13,14,18.80
2013,06,15,13,15,18.90
2013,06,15,13,16,19.10
2013,06,15,13,17,19.20
2013,06,15,13,18,19.20
2013,06,15,13,19,19.30
2013,06,15,13,20,19.30
2013,06,15,13,21,19.40
2013,06,15,13,22,19.40
2013,06,15,13,23,19.40
2013,06,15,13,24,19.50
2013,06,15,13,25,19.50
2013,06,15,13,26,19.50
2013,06,15,13,27,19.50
2013,06,15,13,28,19.50
2013,06,15,13,29,19.40
2013,06,15,13,30,19.40
2013,06,15,13,31,19.40
2013,06,15,13,32,19.40
2013,06,15,13,33,19.40
2013,06,15,13,34,19.40
2013,06,15,13,35,19.30
2013,06,15,13,36,19.30
2013,06,15,13,37,19.30
2013,06,15,13,38,19.30
2013,06,15,13,39,19.40
2013,06,15,13,40,19.40
2013,06,15,13,41,19.50
2013,06,15,13,42,19.50
2013,06,15,13,43,19.50
2013,06,15,13,44,19.60
2013,06,15,13,45,19.60
2013,06,15,13,46,19.60
2013,06,15,13,47,19.70
2013,06,15,13,48,19.70
2013,06,15,13,49,19.80
2013,06,15,13,50,19.80
2013,06,15,13,51,19.80
2013,06,15,13,52,19.90
2013,06,15,13,53,19.90
2013,06,15,13,54,19.90
2013,06,15,13,55,19.90
2013,06,15,13,56,19.90
2013,06,15,13,57,19.80
2013,06,15,13,58,19.80
2013,06,15,13,59,19.80
2013,06,15,14,00,19.70
2013,06,15,14,01,19.60
2013,06,15,14,02,19.60
2013,06,15,14,03,19.60
2013,06,15,14,04,19.60
2013,06,15,14,05,19.50
2013,06,15,14,06,19.40
2013,06,15,14,07,19.40
2013,06,15,14,08,19.40
2013,06,15,14,09,19.50
2013,06,15,14,10,19.50
2013,06,15,14,11,19.50
2013,06,15,14,12,19.60
2013,06,15,14,13,19.60
2013,06,15,14,14,19.70
2013,06,15,14,15,19.80
2013,06,15,14,16,19.90
2013,06,15,14,17,20.00
2013,06,15,14,18,20.10
2013,06,15,14,19,20.10
2013,06,15,14,20,20.20
2013,06,15,14,21,20.20
2013,06,15,14,22,20.30
2013,06,15,14,23,20.30
2013,06,15,14,24,20.40
2013,06,15,14,25,20.50
2013,06,15,14,26,20.60
2013,06,15,14,27,20.60
2013,06,15,14,28,20.60
2013,06,15,14,29,20.70
2013,06,15,14,30,20.60
2013,06,15,14,31,20.60
2013,06,15,14,32,20.40
2013,06,15,14,33,20.40
2013,06,15,14,34,20.40
2013,06,15,14,35,20.40
2013,06,15,14,36,20.50
2013,06,15,14,37,20.60
2013,06,15,14,38,20.70
2013,06,15,14,39,20.80
2013,06,15,14,40,20.90
2013,06,15,14,41,20.90
2013,06,15,14,42,20.90
2013,06,15,14,43,21.00
2013,06,15,14,44,20.90
2013,06,15,14,45,20.90
2013,06,15,14,46,21.00
2013,06,15,14,47,21.10
2013,06,15,14,48,21.10
2013,06,15,14,49,21.10
2013,06,15,14,50,21.20
2013,06,15,14,51,21.30
2013,06,15,14,52,21.40
2013,06,15,14,53,21.40
2013,06,15,14,54,21.40
2013,06,15,14,55,21.40
2013,06,15,14,56,21.30
2013,06,15,14,57,21.30
2013,06,15,14,58,21.20
2013,06,15,14,59,21.20
2013,06,15,15,00,21.20
2013,06,15,15,01,21.20
2013,06,15,15,02,21.20
2013,06,15,15,03,21.20
2013,06,15,15,04,21.20
2013,06,15,15,05,21.20
2013,06,15,15,06,21.20
2013,06,15,15,07,21.10
2013,06,15,15,08,21.10
2013,06,15,15,09,21.10
2013,06,15,15,10,21.10
2013,06,15,15,11,21.10
2013,06,15,15,12,21.00
2013,06,15,15,13,21.00
2013,06,15,15,14,20.90
2013,06,15,15,15,20.80
2013,06,15,15,16,20.70
2013,06,15,15,17,20.50
2013,06,15,15,18,20.50
2013,06,15,15,19,20.40
2013,06,15,15,20,20.40
2013,06,15,15,21,20.20
2013,06,15,15,22,20.00
2013,06,15,15,23,19.80
2013,06,15,15,24,19.60
2013,06,15,15,25,19.50
2013,06,15,15,26,19.40
2013,06,15,15,27,19.30
2013,06,15,15,28,19.10
2013,06,15,15,29,19.10
2013,06,15,15,30,19.10
2013,06,15,15,31,19.20
2013,06,15,15,32,19.30
2013,06,15,15,33,19.50
2013,06,15,15,34,19.60
2013,06,15,15,35,19.70
2013,06,15,15,36,19.90
2013,06,15,15,37,20.00
2013,06,15,15,38,20.20
2013,06,15,15,39,20.20
2013,06,15,15,40,20.30
2013,06,15,15,41,20.30
2013,06,15,15,42,20.40
2013,06,15,15,43,20.50
2013,06,15,15,44,20.60
2013,06,15,15,45,20.70
2013,06,15,15,46,20.80
2013,06,15,15,47,20.80
2013,06,15,15,48,20.90
2013,06,15,15,49,20.90
2013,06,15,15,50,21.00
2013,06,15,15,51,21.10
2013,06,15,15,52,21.10
2013,06,15,15,53,21.20
2013,06,15,15,54,21.20
2013,06,15,15,55,21.20
2013,06,15,15,56,21.30
2013,06,15,15,57,21.30
2013,06,15,15,58,21.30
2013,06,15,15,59,21.40
2013,06,15,16,00,21.50
2013,06,15,16,01,21.60
2013,06,15,16,02,21.70
2013,06,15,16,03,21.70
2013,06,15,16,04,21.70
2013,06,15,16,05,21.70
2013,06,15,16,06,21.80
2013,06,15,16,07,21.70
2013,06,15,16,08,21.70
2013,06,15,16,09,21.60
2013,06,15,16,10,21.60
2013,06,15,16,11,21.70
2013,06,15,16,12,21.70
2013,06,15,16,13,21.80
2013,06,15,16,14,21.80
2013,06,15,16,15,21.80
2013,06,15,16,16,21.80
2013,06,15,16,17,21.70
2013,06,15,16,18,21.60
2013,06,15,16,19,21.60
2013,06,15,16,20,21.60
2013,06,15,16,21,21.60
2013,06,15,16,22,21.60
2013,06,15,16,23,21.60
2013,06,15,16,24,21.70
2013,06,15,16,25,21.70
2013,06,15,16,26,21.60
2013,06,15,16,27,21.50
2013,06,15,16,28,21.40
2013,06,15,16,29,21.30
2013,06,15,16,30,21.30
2013,06,15,16,31,21.20
2013,06,15,16,32,21.20
2013,06,15,16,33,21.20
2013,06,15,16,34,21.20
2013,06,15,16,35,21.30
2013,06,15,16,36,21.30
2013,06,15,16,37,21.30
2013,06,15,16,38,21.40
2013,06,15,16,39,21.40
2013,06,15,16,40,21.40
2013,06,15,16,41,21.40
2013,06,15,16,42,21.50
2013,06,15,16,43,21.60
2013,06,15,16,44,21.60
2013,06,15,16,45,21.70
2013,06,15,16,46,21.80
2013,06,15,16,47,21.80
2013,06,15,16,48,21.80
2013,06,15,16,49,21.80
2013,06,15,16,50,21.90
2013,06,15,16,51,21.90
2013,06,15,16,52,21.90
2013,06,15,16,53,21.80
2013,06,15,16,54,21.80
2013,06,15,16,55,21.80
2013,06,15,16,56,21.90
2013,06,15,16,57,21.90
2013,06,15,16,58,22.00
2013,06,15,16,59,22.00
2013,06,15,17,00,22.00
2013,06,15,17,01,22.10
2013,06,15,17,02,22.00
2013,06,15,17,03,22.10
2013,06,15,17,04,22.10
2013,06,15,17,05,22.10
2013,06,15,17,06,22.20
2013,06,15,17,07,22.20
2013,06,15,17,08,22.20
2013,06,15,17,09,22.30
2013,06,15,17,10,22.30
2013,06,15,17,11,22.30
2013,06,15,17,12,22.20
2013,06,15,17,13,22.20
2013,06,15,17,14,22.20
2013,06,15,17,15,22.20
2013,06,15,17,16,22.20
2013,06,15,17,17,22.10
2013,06,15,17,18,22.10
2013,06,15,17,19,22.00
2013,06,15,17,20,21.90
2013,06,15,17,21,21.80
2013,06,15,17,22,21.80
2013,06,15,17,23,21.70
2013,06,15,17,24,21.70
2013,06,15,17,25,21.70
2013,06,15,17,26,21.60
2013,06,15,17,27,21.60
2013,06,15,17,28,21.60
2013,06,15,17,29,21.60
2013,06,15,17,30,21.60
2013,06,15,17,31,21.60
2013,06,15,17,32,21.60
2013,06,15,17,33,21.60